THORAD DELTA 1 DEB, 42628

Orbit data source: Space-Track

THORAD DELTA 1 DEB, 42628 is space debris in SSO originally from a launch on Fri, 15 Nov 1974 UTC launched from the Air Force Western Test Range (AFWTR). Debris objects in space refer to the collection of defunct objects orbiting the Earth. Examples of debris include non-operational satellites, rocket bodies, and fragments generated from explosions, collisions, or faulty payload assembly.

Loading next visibility...
Identifier
42628, 1974-089GV
Orbit
SSO
Country
Flag of USUS
Related business
Manufacturer
Unknown
Mission
Spacecraft
Bus & Motor
Unknown
Mass
Unknown
Launch date (UTC)
1974-11-15 (51 years ago)
Launch vehicle
Unknown
Launch site
Air Force Western Test Range (AFWTR)
Object type
Payload
Rocket body
Debris
Shape & HBR
Unknown shape, 0.1 m
Radar Cross Section
Small (<0.1 m²)

Expand to show TLE details & history
Last TLE update: 6 days ago

TLE from 6 days ago
0 THORAD DELTA 1 DEB
1 42628U 74089GV  25348.53098126  .00000026  00000-0  62320-3 0  9990
2 42628 101.1764 246.7819 0257960  70.6996 292.1758 12.06962391490531
Epoch: 2025-12-14T12:44Z
TLE epoch observation values (Epoch: 2025-12-14T12:44:36.780Z)
Latitude
-0.00007°
Longitude
-27.8139°
Altitude
1,578.844 km
Speed
7.111 km/s
True Right ascension
16h 27m 07s
True Declination
0° 00' 00"
Sunlit
Object was in daylight at epoch
Visualization orbit readout
Latitude
Unknown
Longitude
Unknown
Altitude
Unknown
Speed
Unknown
Apparent Right ascension
Unknown
Apparent Declination
Unknown
Sunlit
N/A
Visualization observer readout
Local Sidereal Time
01:23:55
Azimuth
Unknown
Elevation
Unknown
Doppler factor
Unknown
Orbital elements
Apogee altitude
1,854.434 km
Perigee altitude
1,440.38 km
Semi-major axis
8,025.544 km
Eccentricity
0.0258
Inclination
101.1764°
RAAN
246.7819°
Arg. of periapsis
70.6996°
True anomaly
289.40582°
Mean anomaly
292.1758°
Eccentric anomaly
290.79407°
Mean motion
3.01878 °/min
Orbital period
119.25 mins
BSTAR
0.0006232
Loading maneuver chart data...
Computing Atmospheric mass density...

Documentation

Showing up to 5 results
|